Chamberlain, SD

3:54 AM CST on February 06, 2016 (GMT -0600)
Chamberlain

Weather History for K9V9 - July, 2013

Change the Weather History Date:

Tuesday, July 16, 2013

  Actual Average (KICR) Record (KICR)
Temperature  
Mean Temperature 78 °F 76 °F  
Max Temperature 87 °F 89 °F - ()
Min Temperature 69 °F 63 °F - ()
Degree Days  
Heating Degree Days 0 0  
Month to date heating degree days 0  
Since 1 June heating degree days 54  
Since 1 July heating degree days 0  
Cooling Degree Days 12 11  
Month to date cooling degree days 157  
Year to date cooling degree days 332  
Since 1 June cooling degree days 302  
Growing Degree Days 28 (Base 50)    
Moisture  
Dew Point 63 °F    
Average Humidity 65    
Maximum Humidity 78    
Minimum Humidity 46    
Precipitation  
Precipitation 0.00 in 0.06 in - ()
Month to date precipitation 1.66  
Year to date precipitation 13.38  
Sea Level Pressure  
Sea Level Pressure 30.11 in    
Wind  
Wind Speed 13 mph (South)    
Max Wind Speed 21 mph    
Max Gust Speed 25 mph    
T = Trace of Precipitation, MM = Missing Value Source: NWS Daily Summary

Daily Weather History Graph

Daily Weather History Graph

Search for Another Location

Airport or City:

Trip Planner

Search our weather history database for the weather conditions in past years. The results will help you decide how hot, cold, wet, or windy it might be!

Date:

Astronomy

Jul. 16, 2013 Rise Set
Actual Time 6:10 AM CDT 9:16 PM CDT
Civil Twilight 5:35 AM CDT 9:50 PM CDT
Nautical Twilight 4:51 AM CDT 10:34 PM CDT
Astronomical Twilight 3:57 AM CDT 11:28 PM CDT
Moon 2:54 PM CDT (7/16) 12:46 AM CDT (7/16)
Length of Visible Light 16h 15m
Length of Day
15h 05m
First Quarter, 56% of the Moon is Illuminated
Jul 16
First Quarter
Jul 22
Full
Jul 29
Last Quarter
Aug 6
New
Aug 14
First Quarter

Hourly Weather History & Observations

Time (CDT) Temp. Heat Index Dew Point Humidity Pressure Visibility Wind Dir Wind Speed Gust Speed Precip Events Conditions
12:52 AM 70.0 °F - 62.1 °F 76% 30.07 in - SSE 10.4 mph - N/A   Unknown
1:52 AM 70.0 °F - 62.1 °F 76% 30.07 in - SSE 10.4 mph - N/A   Unknown
2:52 AM 71.1 °F - 62.1 °F 73% 30.06 in - South 11.5 mph - N/A   Unknown
3:52 AM 72.0 °F - 61.0 °F 68% 30.07 in - South 13.8 mph 24.2 mph N/A   Unknown
4:52 AM 73.0 °F - 60.1 °F 64% 30.07 in - SSW 15.0 mph - N/A   Unknown
5:52 AM 69.1 °F - 61.0 °F 75% 30.08 in - SSW 11.5 mph - N/A   Unknown
6:52 AM 70.0 °F - 61.0 °F 73% 30.10 in - SSW 12.7 mph - N/A   Unknown
7:52 AM 72.0 °F - 62.1 °F 71% 30.12 in - South 15.0 mph - N/A   Unknown
8:52 AM 73.9 °F - 63.0 °F 68% 30.13 in - SSW 15.0 mph - N/A   Unknown
9:52 AM 75.9 °F - 64.0 °F 67% 30.13 in - SSW 13.8 mph - N/A   Unknown
10:52 AM 79.0 °F - 64.0 °F 60% 30.13 in - South 17.3 mph - N/A   Unknown
2:52 PM 84.9 °F 86.6 °F 64.9 °F 51% 30.12 in - South 20.7 mph 25.3 mph N/A   Unknown
3:52 PM 86.0 °F 87.6 °F 64.9 °F 49% 30.12 in - South 16.1 mph 24.2 mph N/A   Unknown
4:52 PM 86.0 °F 86.8 °F 63.0 °F 46% 30.10 in - South 19.6 mph 25.3 mph N/A   Unknown
5:52 PM 84.0 °F 84.9 °F 63.0 °F 49% 30.11 in - South 15.0 mph - N/A   Unknown
6:52 PM 84.0 °F 85.4 °F 64.0 °F 51% 30.11 in - South 15.0 mph 20.7 mph N/A   Unknown
7:52 PM 81.0 °F 82.5 °F 64.0 °F 56% 30.11 in - South 12.7 mph - N/A   Unknown
8:52 PM 77.0 °F - 64.9 °F 66% 30.11 in - SSE 9.2 mph - N/A   Unknown
9:52 PM 73.0 °F - 64.9 °F 76% 30.13 in - SE 9.2 mph - N/A   Unknown
10:52 PM 72.0 °F - 64.0 °F 76% 30.15 in - SSE 9.2 mph - N/A   Unknown
11:52 PM 71.1 °F - 64.0 °F 78% 30.16 in - SSE 9.2 mph - N/A   Unknown